Location: Andrest
(43.3200°N, 0.0641°E)
Time: 03:27:25
(UTC+00:00)

COSMO-SKYMED 1 - Pass Details

Date: 14 April 2021
Orbit: 621 x 623 km, 97.9° (Epoch: 18 May)

Event Time Altitude Azimuth Distance (km) Brightness Sun altitude
Rises 19:09:13 0° 359° (N) 2,914 6.3 -5.6°
Reaches altitude 10° 19:11:48 10° 344° (NNW) 2,002 5.7 -6.1°
Maximum altitude 19:15:08 22° 294° (WNW) 1,373 5.6 -6.6°
Drops below altitude 10° 19:18:27 10° 244° (WSW) 1,989 5.8 -7.2°
Sets 19:21:00 0° 229° (SW) 2,890 6.4 -7.6°
